Regional Weather Roundup
Issued by NWS Kansas City/Pleasant Hill, MO

Home | Current Version | Previous Version | Text Only | Print | Product List | Glossary On
Versions: 1 2 3 4 5 6 7 8 9 10 11 12 13 14 15 16 17 18 19 20 21 22 23 24 25 26 27 28 29 30 31 32 33 34 35 36 37 38 39 40 41 42 43 44 45 46 47 48 49 50
000
ASUS43 KEAX 010604
RWREAX

WEATHER ROUNDUP FOR EASTERN KANSAS AND NORTHWEST MISSOURI
NATIONAL WEATHER SERVICE KANSAS CITY/PLEASANT HILL MO
100 AM CDT WED OCT 01 2014

KSZ040-057-103>105-MOZ028-029-037-043-010700-
...KANSAS CITY METROPOLITAN AREA...

CITY           SKY/WX    TMP DP  RH WIND       PRES   REMARKS
K.C. INTL      CLOUDY    68  63  84 SE12      29.77F
6HR MIN TEMP:  68; 6HR MAX TEMP:  75; 6HR PCP:  0.01;

K.C. DOWNTOWN  CLOUDY    73  61  65 SE12G17   29.77F
6HR MIN TEMP:  71; 6HR MAX TEMP:  81; 6HR PCP:  0.03;

LEES SUMMIT    CLOUDY    70  59  68 S10       29.81F
6HR MIN TEMP:  70; 6HR MAX TEMP:  78;

OLATHE - IXD   LGT RAIN  68  62  81 S13       29.78F
6HR MIN TEMP:  68; 6HR MAX TEMP:  76; 6HR PCP: TRACE;

OLATHE - OJC   LGT RAIN  68  61  78 S14       29.78F
6HR MIN TEMP:  67; 6HR MAX TEMP:  76; 6HR PCP:  0.01;

LAWRENCE       CLOUDY    69  62  78 SE9       29.76F

$$

MOZ001>008-011>017-020>025-030>033-038>040-044>046-053-054-010700-
...NORTHERN AND CENTRAL MISSOURI...

CITY           SKY/WX    TMP DP  RH WIND       PRES   REMARKS
ST. JOSEPH     CLOUDY    73  60  63 S14       29.75F
6HR MIN TEMP:  72; 6HR MAX TEMP:  76;

MOSBY          CLOUDY    70  59  68 SE8       29.79F
WHITEMAN AFB   CLEAR     65  57  77 S7        29.82S
6HR MIN TEMP:  65; 6HR MAX TEMP:  75;

CLINTON        CLEAR     68  57  68 S3        29.83S
SEDALIA        CLEAR     67  56  67 S8        29.84S
6HR MIN TEMP:  66; 6HR MAX TEMP:  74;

WARSAW         NOT AVBL
MARSHALL       PTCLDY    66  61  82 E3        29.84S
CHILLICOTHE      N/A     69  62  78 SE5       29.82F
6HR MIN TEMP:  68; 6HR MAX TEMP:  76;

MOBERLY        CLEAR     64  57  77 E5        29.87S
KIRKSVILLE     PTCLDY    62  50  65 E10       29.87F
6HR MIN TEMP:  62; 6HR MAX TEMP:  69;


$$

MOZ041-047>049-056>058-063>065-088>090-097-010700-
...EASTERN AND SOUTHERN MISSOURI...

CITY           SKY/WX    TMP DP  RH WIND       PRES   REMARKS
ST. LOUIS INTL CLEAR     67  59  75 E7        29.91S
6HR MIN TEMP:  67; 6HR MAX TEMP:  78;

SPIRIT OF STL  CLEAR    N/A N/A N/A CALM      29.88F
COLUMBIA       CLEAR     67  57  70 SE7       29.86S
JEFFERSON CITY CLEAR     62  57  83 CALM      29.85S
MEXICO         CLEAR     64  64 100 E5        29.87S
ROLLA          CLEAR     64  51  62 S7        29.87F
LEBANON        CLEAR     63  54  72 SE6       29.88F
OSAGE BEACH    CLEAR     64  54  68 SE5       29.85F
SPRINGFIELD    CLEAR     66  55  67 SE9       29.86F
BRANSON        CLEAR     64  57  77 SE7       29.89S
NEVADA         CLEAR     64  59  82 SE7       29.82F
JOPLIN         PTCLDY    70  59  68 SE10      29.82F
WEST PLAINS    CLEAR     56  52  86 CALM      29.92S

$$

IAZ060-094-KSZ022-034>040-054-083-096-NEZ052-066-093-010700-
...KANSAS...SOUTHEAST NEBRASKA AND IOWA...

CITY           SKY/WX    TMP DP  RH WIND       PRES   REMARKS
TOPEKA         CLOUDY    75  62  64 S18G26    29.73F
6HR MIN TEMP:  74; 6HR MAX TEMP:  80;

MANHATTAN      RAIN      69  66  90 S8        29.74R FOG
EMPORIA        MOCLDY    70  63  78 S20       29.74F
CHANUTE        MOCLDY    71  62  73 SE12      29.79S
WICHITA        CLOUDY    74  63  68 S21G28    29.70S
OMAHA          TSTM      65  61  87 SE17      29.77R FOG
LINCOLN        TSTM      61  59  93 NE3       29.77S VSB 1
FALLS CITY     LGT RAIN  65  64  97 E8        29.75F FOG
LAMONI         CLOUDY    66  61  84 E7        29.81F
DES MOINES     CLOUDY    65  56  72 SE8       29.83F

$$




USA.gov is the U.S. government's official web portal to all federal, state and local government web resources and services.